owner,sensor,date,latitude,longitude,relative_humidity,qcFlag 
COMPS,ioos:station:USF.COMPS:C13:1,2017-08-01T00:05:00Z,26.0630,-83.0730,68.67,1111122 
COMPS,ioos:station:USF.COMPS:C13:1,2017-08-01T00:35:00Z,26.0630,-83.0730,70.85,1111122 
COMPS,ioos:station:USF.COMPS:C13:1,2017-08-01T01:05:00Z,26.0630,-83.0730,70.71,1111122 
COMPS,ioos:station:USF.COMPS:C13:1,2017-08-01T01:35:00Z,26.0630,-83.0730,79.32,1111122 
COMPS,ioos:station:USF.COMPS:C13:1,2017-08-01T02:05:00Z,26.0630,-83.0730,84.62,1111122 
COMPS,ioos:station:USF.COMPS:C13:1,2017-08-01T02:35:00Z,26.0630,-83.0730,84.83,1111122 
COMPS,ioos:station:USF.COMPS:C13:1,2017-08-01T03:05:00Z,26.0630,-83.0730,76.03,1111122 
COMPS,ioos:station:USF.COMPS:C13:1,2017-08-01T03:35:00Z,26.0630,-83.0730,85.16,1111122 
COMPS,ioos:station:USF.COMPS:C13:1,2017-08-01T04:05:00Z,26.0630,-83.0730,80.91,1111122 
COMPS,ioos:station:USF.COMPS:C13:1,2017-08-01T04:35:00Z,26.0630,-83.0730,81.06,1111122 
COMPS,ioos:station:USF.COMPS:C13:1,2017-08-01T05:05:00Z,26.0630,-83.0730,79.38,1111122 
COMPS,ioos:station:USF.COMPS:C13:1,2017-08-01T05:35:00Z,26.0630,-83.0730,74.41,1111122 
COMPS,ioos:station:USF.COMPS:C13:1,2017-08-01T06:05:00Z,26.0630,-83.0730,74.38,1111122 
COMPS,ioos:station:USF.COMPS:C13:1,2017-08-01T06:35:00Z,26.0630,-83.0730,75.17,1111122 
COMPS,ioos:station:USF.COMPS:C13:1,2017-08-01T07:05:00Z,26.0630,-83.0730,76.34,1111122 
COMPS,ioos:station:USF.COMPS:C13:1,2017-08-01T07:35:00Z,26.0630,-83.0730,75.24,1111122 
COMPS,ioos:station:USF.COMPS:C13:1,2017-08-01T08:05:00Z,26.0630,-83.0730,76.39,1111122 
COMPS,ioos:station:USF.COMPS:C13:1,2017-08-01T08:35:00Z,26.0630,-83.0730,74.27,1111122 
COMPS,ioos:station:USF.COMPS:C13:1,2017-08-01T09:05:00Z,26.0630,-83.0730,74.19,1111122 
COMPS,ioos:station:USF.COMPS:C13:1,2017-08-01T09:35:00Z,26.0630,-83.0730,70.65,1111122 
COMPS,ioos:station:USF.COMPS:C13:1,2017-08-01T10:05:00Z,26.0630,-83.0730,73.44,1111122 
COMPS,ioos:station:USF.COMPS:C13:1,2017-08-01T10:35:00Z,26.0630,-83.0730,74.22,1111122 
COMPS,ioos:station:USF.COMPS:C13:1,2017-08-01T11:05:00Z,26.0630,-83.0730,73.41,1111122 
COMPS,ioos:station:USF.COMPS:C13:1,2017-08-01T11:35:00Z,26.0630,-83.0730,70.7,1111122 
COMPS,ioos:station:USF.COMPS:C13:1,2017-08-01T12:05:00Z,26.0630,-83.0730,72.09,1111122 
COMPS,ioos:station:USF.COMPS:C13:1,2017-08-01T12:35:00Z,26.0630,-83.0730,72.84,1111122 
COMPS,ioos:station:USF.COMPS:C13:1,2017-08-01T13:05:00Z,26.0630,-83.0730,72.4,1111122 
COMPS,ioos:station:USF.COMPS:C13:1,2017-08-01T13:35:00Z,26.0630,-83.0730,71.1,1111122 
COMPS,ioos:station:USF.COMPS:C13:1,2017-08-01T14:05:00Z,26.0630,-83.0730,70.87,1111122 
COMPS,ioos:station:USF.COMPS:C13:1,2017-08-01T14:35:00Z,26.0630,-83.0730,71.93,1111122 
COMPS,ioos:station:USF.COMPS:C13:1,2017-08-01T15:05:00Z,26.0630,-83.0730,72.47,1111122 
COMPS,ioos:station:USF.COMPS:C13:1,2017-08-01T15:35:00Z,26.0630,-83.0730,74.31,1111122 
COMPS,ioos:station:USF.COMPS:C13:1,2017-08-01T16:05:00Z,26.0630,-83.0730,71.57,1111122 
COMPS,ioos:station:USF.COMPS:C13:1,2017-08-01T16:35:00Z,26.0630,-83.0730,72.41,1111122 
COMPS,ioos:station:USF.COMPS:C13:1,2017-08-01T17:05:00Z,26.0630,-83.0730,72.57,1111122 
COMPS,ioos:station:USF.COMPS:C13:1,2017-08-01T17:35:00Z,26.0630,-83.0730,71.13,1111122 
COMPS,ioos:station:USF.COMPS:C13:1,2017-08-01T18:05:00Z,26.0630,-83.0730,71.72,1111122 
COMPS,ioos:station:USF.COMPS:C13:1,2017-08-01T18:35:00Z,26.0630,-83.0730,70.97,1111122 
COMPS,ioos:station:USF.COMPS:C13:1,2017-08-01T19:05:00Z,26.0630,-83.0730,72.31,1111122 
COMPS,ioos:station:USF.COMPS:C13:1,2017-08-01T19:35:00Z,26.0630,-83.0730,70.23,1111122 
COMPS,ioos:station:USF.COMPS:C13:1,2017-08-01T20:05:00Z,26.0630,-83.0730,70.03,1111122 
COMPS,ioos:station:USF.COMPS:C13:1,2017-08-01T20:35:00Z,26.0630,-83.0730,71.22,1111122 
COMPS,ioos:station:USF.COMPS:C13:1,2017-08-01T21:05:00Z,26.0630,-83.0730,81.57,1111122 
COMPS,ioos:station:USF.COMPS:C13:1,2017-08-01T21:35:00Z,26.0630,-83.0730,84.31,1111122 
COMPS,ioos:station:USF.COMPS:C13:1,2017-08-01T22:05:00Z,26.0630,-83.0730,81.77,1111122 
COMPS,ioos:station:USF.COMPS:C13:1,2017-08-01T22:35:00Z,26.0630,-83.0730,74.34,1111122 
COMPS,ioos:station:USF.COMPS:C13:1,2017-08-01T23:05:00Z,26.0630,-83.0730,73.57,1111122 
COMPS,ioos:station:USF.COMPS:C13:1,2017-08-01T23:35:00Z,26.0630,-83.0730,75.14,1111122 
COMPS,ioos:station:USF.COMPS:C13:1,2017-08-02T00:05:00Z,26.0630,-83.0730,74.17,1111122 
COMPS,ioos:station:USF.COMPS:C13:1,2017-08-02T00:35:00Z,26.0630,-83.0730,73.64,1111122 
COMPS,ioos:station:USF.COMPS:C13:1,2017-08-02T01:05:00Z,26.0630,-83.0730,74.05,1111122 
COMPS,ioos:station:USF.COMPS:C13:1,2017-08-02T01:35:00Z,26.0630,-83.0730,67.64,1111122 
COMPS,ioos:station:USF.COMPS:C13:1,2017-08-02T02:05:00Z,26.0630,-83.0730,71.3,1111122 
COMPS,ioos:station:USF.COMPS:C13:1,2017-08-02T02:35:00Z,26.0630,-83.0730,73.1,1111122 
COMPS,ioos:station:USF.COMPS:C13:1,2017-08-02T03:05:00Z,26.0630,-83.0730,75.08,1111122 
COMPS,ioos:station:USF.COMPS:C13:1,2017-08-02T03:35:00Z,26.0630,-83.0730,76.08,1111122 
COMPS,ioos:station:USF.COMPS:C13:1,2017-08-02T04:05:00Z,26.0630,-83.0730,73.17,1111122 
COMPS,ioos:station:USF.COMPS:C13:1,2017-08-02T04:35:00Z,26.0630,-83.0730,74.03,1111122 
COMPS,ioos:station:USF.COMPS:C13:1,2017-08-02T05:05:00Z,26.0630,-83.0730,79.08,1111122 
COMPS,ioos:station:USF.COMPS:C13:1,2017-08-02T05:35:00Z,26.0630,-83.0730,81.08,1111122 
COMPS,ioos:station:USF.COMPS:C13:1,2017-08-02T06:05:00Z,26.0630,-83.0730,69.44,1111122 
COMPS,ioos:station:USF.COMPS:C13:1,2017-08-02T06:35:00Z,26.0630,-83.0730,68.1,1111122 
COMPS,ioos:station:USF.COMPS:C13:1,2017-08-02T07:05:00Z,26.0630,-83.0730,64.98,1111122 
COMPS,ioos:station:USF.COMPS:C13:1,2017-08-02T07:35:00Z,26.0630,-83.0730,67.31,1111122 
COMPS,ioos:station:USF.COMPS:C13:1,2017-08-02T08:05:00Z,26.0630,-83.0730,64.35,1111122 
COMPS,ioos:station:USF.COMPS:C13:1,2017-08-02T08:35:00Z,26.0630,-83.0730,68.29,1111122 
COMPS,ioos:station:USF.COMPS:C13:1,2017-08-02T09:05:00Z,26.0630,-83.0730,70.55,1111122 
COMPS,ioos:station:USF.COMPS:C13:1,2017-08-02T09:35:00Z,26.0630,-83.0730,71.88,1111122 
COMPS,ioos:station:USF.COMPS:C13:1,2017-08-02T10:05:00Z,26.0630,-83.0730,73.24,1111122 
COMPS,ioos:station:USF.COMPS:C13:1,2017-08-02T10:35:00Z,26.0630,-83.0730,72.48,1111122 
COMPS,ioos:station:USF.COMPS:C13:1,2017-08-02T11:05:00Z,26.0630,-83.0730,70.94,1111122 
COMPS,ioos:station:USF.COMPS:C13:1,2017-08-02T11:35:00Z,26.0630,-83.0730,70.36,1111122 
COMPS,ioos:station:USF.COMPS:C13:1,2017-08-02T12:05:00Z,26.0630,-83.0730,70.62,1111122 
COMPS,ioos:station:USF.COMPS:C13:1,2017-08-02T12:35:00Z,26.0630,-83.0730,71.08,1111122 
COMPS,ioos:station:USF.COMPS:C13:1,2017-08-02T13:05:00Z,26.0630,-83.0730,70.12,1111122 
COMPS,ioos:station:USF.COMPS:C13:1,2017-08-02T13:35:00Z,26.0630,-83.0730,68.81,1111122 
COMPS,ioos:station:USF.COMPS:C13:1,2017-08-02T14:05:00Z,26.0630,-83.0730,70.2,1111122 
COMPS,ioos:station:USF.COMPS:C13:1,2017-08-02T14:35:00Z,26.0630,-83.0730,70.88,1111122 
COMPS,ioos:station:USF.COMPS:C13:1,2017-08-02T15:05:00Z,26.0630,-83.0730,71.76,1111122 
COMPS,ioos:station:USF.COMPS:C13:1,2017-08-02T15:35:00Z,26.0630,-83.0730,70.2,1111122 
COMPS,ioos:station:USF.COMPS:C13:1,2017-08-02T16:05:00Z,26.0630,-83.0730,73.17,1111122 
COMPS,ioos:station:USF.COMPS:C13:1,2017-08-02T16:35:00Z,26.0630,-83.0730,72.06,1111122 
COMPS,ioos:station:USF.COMPS:C13:1,2017-08-02T17:05:00Z,26.0630,-83.0730,73.48,1111122 
COMPS,ioos:station:USF.COMPS:C13:1,2017-08-02T17:35:00Z,26.0630,-83.0730,73.79,1111122 
COMPS,ioos:station:USF.COMPS:C13:1,2017-08-02T18:05:00Z,26.0630,-83.0730,72.47,1111122 
COMPS,ioos:station:USF.COMPS:C13:1,2017-08-02T18:35:00Z,26.0630,-83.0730,72.96,1111122 
COMPS,ioos:station:USF.COMPS:C13:1,2017-08-02T19:05:00Z,26.0630,-83.0730,72.2,1111122 
COMPS,ioos:station:USF.COMPS:C13:1,2017-08-02T19:35:00Z,26.0630,-83.0730,70.84,1111122 
COMPS,ioos:station:USF.COMPS:C13:1,2017-08-02T20:05:00Z,26.0630,-83.0730,71.59,1111122 
COMPS,ioos:station:USF.COMPS:C13:1,2017-08-02T20:35:00Z,26.0630,-83.0730,71.0,1111122 
COMPS,ioos:station:USF.COMPS:C13:1,2017-08-02T21:05:00Z,26.0630,-83.0730,70.65,1111122 
COMPS,ioos:station:USF.COMPS:C13:1,2017-08-02T21:35:00Z,26.0630,-83.0730,72.48,1111122 
COMPS,ioos:station:USF.COMPS:C13:1,2017-08-02T22:05:00Z,26.0630,-83.0730,72.64,1111122 
COMPS,ioos:station:USF.COMPS:C13:1,2017-08-02T22:35:00Z,26.0630,-83.0730,72.05,1111122 
COMPS,ioos:station:USF.COMPS:C13:1,2017-08-02T23:05:00Z,26.0630,-83.0730,79.33,1111122 
COMPS,ioos:station:USF.COMPS:C13:1,2017-08-02T23:35:00Z,26.0630,-83.0730,77.03,1111122 
COMPS,ioos:station:USF.COMPS:C13:1,2017-08-03T00:05:00Z,26.0630,-83.0730,75.87,1111122 
COMPS,ioos:station:USF.COMPS:C13:1,2017-08-03T00:35:00Z,26.0630,-83.0730,73.31,1111122 
COMPS,ioos:station:USF.COMPS:C13:1,2017-08-03T01:05:00Z,26.0630,-83.0730,72.17,1111122 
COMPS,ioos:station:USF.COMPS:C13:1,2017-08-03T01:35:00Z,26.0630,-83.0730,72.62,1111122 
COMPS,ioos:station:USF.COMPS:C13:1,2017-08-03T02:05:00Z,26.0630,-83.0730,70.57,1111122 
COMPS,ioos:station:USF.COMPS:C13:1,2017-08-03T02:35:00Z,26.0630,-83.0730,70.04,1111122 
COMPS,ioos:station:USF.COMPS:C13:1,2017-08-03T03:05:00Z,26.0630,-83.0730,72.37,1111122 
COMPS,ioos:station:USF.COMPS:C13:1,2017-08-03T03:35:00Z,26.0630,-83.0730,73.2,1111122 
COMPS,ioos:station:USF.COMPS:C13:1,2017-08-03T04:05:00Z,26.0630,-83.0730,74.02,1111122 
COMPS,ioos:station:USF.COMPS:C13:1,2017-08-03T04:35:00Z,26.0630,-83.0730,73.65,1111122 
COMPS,ioos:station:USF.COMPS:C13:1,2017-08-03T05:05:00Z,26.0630,-83.0730,74.27,1111122 
COMPS,ioos:station:USF.COMPS:C13:1,2017-08-03T05:35:00Z,26.0630,-83.0730,74.52,1111122 
COMPS,ioos:station:USF.COMPS:C13:1,2017-08-03T06:05:00Z,26.0630,-83.0730,75.63,1111122 
COMPS,ioos:station:USF.COMPS:C13:1,2017-08-03T06:35:00Z,26.0630,-83.0730,76.57,1111122 
COMPS,ioos:station:USF.COMPS:C13:1,2017-08-03T07:05:00Z,26.0630,-83.0730,77.16,1111122 
COMPS,ioos:station:USF.COMPS:C13:1,2017-08-03T07:35:00Z,26.0630,-83.0730,77.53,1111122 
COMPS,ioos:station:USF.COMPS:C13:1,2017-08-03T08:05:00Z,26.0630,-83.0730,77.72,1111122 
COMPS,ioos:station:USF.COMPS:C13:1,2017-08-03T08:35:00Z,26.0630,-83.0730,77.71,1111122 
COMPS,ioos:station:USF.COMPS:C13:1,2017-08-03T09:05:00Z,26.0630,-83.0730,78.09,1111122 
COMPS,ioos:station:USF.COMPS:C13:1,2017-08-03T09:35:00Z,26.0630,-83.0730,78.52,1111122 
COMPS,ioos:station:USF.COMPS:C13:1,2017-08-03T10:05:00Z,26.0630,-83.0730,78.98,1111122 
COMPS,ioos:station:USF.COMPS:C13:1,2017-08-03T10:35:00Z,26.0630,-83.0730,79.35,1111122 
COMPS,ioos:station:USF.COMPS:C13:1,2017-08-03T11:05:00Z,26.0630,-83.0730,79.14,1111122 
COMPS,ioos:station:USF.COMPS:C13:1,2017-08-03T11:35:00Z,26.0630,-83.0730,78.98,1111122 
COMPS,ioos:station:USF.COMPS:C13:1,2017-08-03T14:05:00Z,26.0630,-83.0730,75.65,1111122 
COMPS,ioos:station:USF.COMPS:C13:1,2017-08-03T14:35:00Z,26.0630,-83.0730,75.92,1111122 
COMPS,ioos:station:USF.COMPS:C13:1,2017-08-03T15:05:00Z,26.0630,-83.0730,76.82,1111122 
COMPS,ioos:station:USF.COMPS:C13:1,2017-08-03T15:35:00Z,26.0630,-83.0730,76.85,1111122 
COMPS,ioos:station:USF.COMPS:C13:1,2017-08-03T16:05:00Z,26.0630,-83.0730,74.38,1111122 
COMPS,ioos:station:USF.COMPS:C13:1,2017-08-03T16:35:00Z,26.0630,-83.0730,76.27,1111122 
COMPS,ioos:station:USF.COMPS:C13:1,2017-08-03T17:05:00Z,26.0630,-83.0730,75.88,1111122 
COMPS,ioos:station:USF.COMPS:C13:1,2017-08-03T17:35:00Z,26.0630,-83.0730,76.13,1111122 
COMPS,ioos:station:USF.COMPS:C13:1,2017-08-03T18:05:00Z,26.0630,-83.0730,75.95,1111122 
COMPS,ioos:station:USF.COMPS:C13:1,2017-08-03T18:35:00Z,26.0630,-83.0730,75.47,1111122 
COMPS,ioos:station:USF.COMPS:C13:1,2017-08-03T19:05:00Z,26.0630,-83.0730,76.39,1111122 
COMPS,ioos:station:USF.COMPS:C13:1,2017-08-03T19:35:00Z,26.0630,-83.0730,72.75,1111122 
COMPS,ioos:station:USF.COMPS:C13:1,2017-08-03T20:05:00Z,26.0630,-83.0730,73.24,1111122 
COMPS,ioos:station:USF.COMPS:C13:1,2017-08-03T20:35:00Z,26.0630,-83.0730,73.23,1111122 
COMPS,ioos:station:USF.COMPS:C13:1,2017-08-03T21:05:00Z,26.0630,-83.0730,70.97,1111122 
COMPS,ioos:station:USF.COMPS:C13:1,2017-08-03T21:35:00Z,26.0630,-83.0730,73.35,1111122 
COMPS,ioos:station:USF.COMPS:C13:1,2017-08-03T22:05:00Z,26.0630,-83.0730,73.55,1111122 
COMPS,ioos:station:USF.COMPS:C13:1,2017-08-03T22:35:00Z,26.0630,-83.0730,73.61,1111122 
COMPS,ioos:station:USF.COMPS:C13:1,2017-08-03T23:05:00Z,26.0630,-83.0730,70.48,1111122 
COMPS,ioos:station:USF.COMPS:C13:1,2017-08-03T23:35:00Z,26.0630,-83.0730,69.16,1111122 
COMPS,ioos:station:USF.COMPS:C13:1,2017-08-04T00:05:00Z,26.0630,-83.0730,71.12,1111122 
COMPS,ioos:station:USF.COMPS:C13:1,2017-08-04T00:35:00Z,26.0630,-83.0730,70.6,1111122 
COMPS,ioos:station:USF.COMPS:C13:1,2017-08-04T01:05:00Z,26.0630,-83.0730,72.26,1111122 
COMPS,ioos:station:USF.COMPS:C13:1,2017-08-04T01:35:00Z,26.0630,-83.0730,72.27,1111122 
COMPS,ioos:station:USF.COMPS:C13:1,2017-08-04T02:05:00Z,26.0630,-83.0730,71.43,1111122 
COMPS,ioos:station:USF.COMPS:C13:1,2017-08-04T02:35:00Z,26.0630,-83.0730,71.5,1111122 
COMPS,ioos:station:USF.COMPS:C13:1,2017-08-04T03:05:00Z,26.0630,-83.0730,71.2,1111122 
COMPS,ioos:station:USF.COMPS:C13:1,2017-08-04T03:35:00Z,26.0630,-83.0730,72.98,1111122 
COMPS,ioos:station:USF.COMPS:C13:1,2017-08-04T04:05:00Z,26.0630,-83.0730,73.98,1111122 
COMPS,ioos:station:USF.COMPS:C13:1,2017-08-04T04:35:00Z,26.0630,-83.0730,74.58,1111122 
COMPS,ioos:station:USF.COMPS:C13:1,2017-08-04T05:05:00Z,26.0630,-83.0730,74.91,1111122 
COMPS,ioos:station:USF.COMPS:C13:1,2017-08-04T05:35:00Z,26.0630,-83.0730,75.21,1111122 
COMPS,ioos:station:USF.COMPS:C13:1,2017-08-04T07:05:00Z,26.0630,-83.0730,76.2,1111122 
COMPS,ioos:station:USF.COMPS:C13:1,2017-08-04T07:35:00Z,26.0630,-83.0730,76.93,1111122 
COMPS,ioos:station:USF.COMPS:C13:1,2017-08-04T08:05:00Z,26.0630,-83.0730,73.52,1111122 
COMPS,ioos:station:USF.COMPS:C13:1,2017-08-04T08:35:00Z,26.0630,-83.0730,71.83,1111122 
COMPS,ioos:station:USF.COMPS:C13:1,2017-08-04T09:05:00Z,26.0630,-83.0730,70.15,1111122 
COMPS,ioos:station:USF.COMPS:C13:1,2017-08-04T09:35:00Z,26.0630,-83.0730,69.08,1111122 
COMPS,ioos:station:USF.COMPS:C13:1,2017-08-04T10:05:00Z,26.0630,-83.0730,69.74,1111122 
COMPS,ioos:station:USF.COMPS:C13:1,2017-08-04T10:35:00Z,26.0630,-83.0730,70.81,1111122 
COMPS,ioos:station:USF.COMPS:C13:1,2017-08-04T11:05:00Z,26.0630,-83.0730,71.19,1111122 
COMPS,ioos:station:USF.COMPS:C13:1,2017-08-04T11:35:00Z,26.0630,-83.0730,72.72,1111122 
COMPS,ioos:station:USF.COMPS:C13:1,2017-08-04T12:05:00Z,26.0630,-83.0730,71.89,1111122 
COMPS,ioos:station:USF.COMPS:C13:1,2017-08-04T12:35:00Z,26.0630,-83.0730,71.37,1111122 
COMPS,ioos:station:USF.COMPS:C13:1,2017-08-04T13:05:00Z,26.0630,-83.0730,71.63,1111122 
COMPS,ioos:station:USF.COMPS:C13:1,2017-08-04T13:35:00Z,26.0630,-83.0730,73.11,1111122 
COMPS,ioos:station:USF.COMPS:C13:1,2017-08-04T14:05:00Z,26.0630,-83.0730,73.88,1111122 
COMPS,ioos:station:USF.COMPS:C13:1,2017-08-04T14:35:00Z,26.0630,-83.0730,74.67,1111122 
COMPS,ioos:station:USF.COMPS:C13:1,2017-08-04T15:05:00Z,26.0630,-83.0730,73.33,1111122 
COMPS,ioos:station:USF.COMPS:C13:1,2017-08-04T15:35:00Z,26.0630,-83.0730,73.74,1111122 
COMPS,ioos:station:USF.COMPS:C13:1,2017-08-04T16:05:00Z,26.0630,-83.0730,73.99,1111122 
COMPS,ioos:station:USF.COMPS:C13:1,2017-08-04T16:35:00Z,26.0630,-83.0730,72.35,1111122 
COMPS,ioos:station:USF.COMPS:C13:1,2017-08-04T17:05:00Z,26.0630,-83.0730,67.76,1111122 
COMPS,ioos:station:USF.COMPS:C13:1,2017-08-04T17:35:00Z,26.0630,-83.0730,66.93,1111122 
COMPS,ioos:station:USF.COMPS:C13:1,2017-08-04T18:05:00Z,26.0630,-83.0730,66.45,1111122 
COMPS,ioos:station:USF.COMPS:C13:1,2017-08-04T18:35:00Z,26.0630,-83.0730,69.51,1111122 
COMPS,ioos:station:USF.COMPS:C13:1,2017-08-04T19:05:00Z,26.0630,-83.0730,69.83,1111122 
COMPS,ioos:station:USF.COMPS:C13:1,2017-08-04T19:35:00Z,26.0630,-83.0730,69.48,1111122 
COMPS,ioos:station:USF.COMPS:C13:1,2017-08-04T20:05:00Z,26.0630,-83.0730,69.46,1111122 
COMPS,ioos:station:USF.COMPS:C13:1,2017-08-04T20:35:00Z,26.0630,-83.0730,69.94,1111122 
COMPS,ioos:station:USF.COMPS:C13:1,2017-08-04T21:05:00Z,26.0630,-83.0730,71.08,1111122 
COMPS,ioos:station:USF.COMPS:C13:1,2017-08-04T21:35:00Z,26.0630,-83.0730,71.79,1111122 
COMPS,ioos:station:USF.COMPS:C13:1,2017-08-04T22:05:00Z,26.0630,-83.0730,72.28,1111122 
COMPS,ioos:station:USF.COMPS:C13:1,2017-08-04T22:35:00Z,26.0630,-83.0730,72.12,1111122 
COMPS,ioos:station:USF.COMPS:C13:1,2017-08-04T23:05:00Z,26.0630,-83.0730,72.9,1111122 
COMPS,ioos:station:USF.COMPS:C13:1,2017-08-04T23:35:00Z,26.0630,-83.0730,72.71,1111122 
COMPS,ioos:station:USF.COMPS:C13:1,2017-08-05T00:05:00Z,26.0630,-83.0730,74.02,1111122 
COMPS,ioos:station:USF.COMPS:C13:1,2017-08-05T00:35:00Z,26.0630,-83.0730,75.21,1111122 
COMPS,ioos:station:USF.COMPS:C13:1,2017-08-05T01:05:00Z,26.0630,-83.0730,72.63,1111122 
COMPS,ioos:station:USF.COMPS:C13:1,2017-08-05T01:35:00Z,26.0630,-83.0730,73.6,1111122 
COMPS,ioos:station:USF.COMPS:C13:1,2017-08-05T02:05:00Z,26.0630,-83.0730,72.79,1111122 
COMPS,ioos:station:USF.COMPS:C13:1,2017-08-05T02:35:00Z,26.0630,-83.0730,74.3,1111122 
COMPS,ioos:station:USF.COMPS:C13:1,2017-08-05T04:05:00Z,26.0630,-83.0730,74.35,1111122 
COMPS,ioos:station:USF.COMPS:C13:1,2017-08-05T04:35:00Z,26.0630,-83.0730,74.18,1111122 
COMPS,ioos:station:USF.COMPS:C13:1,2017-08-05T05:05:00Z,26.0630,-83.0730,75.59,1111122 
COMPS,ioos:station:USF.COMPS:C13:1,2017-08-05T05:35:00Z,26.0630,-83.0730,76.26,1111122 
COMPS,ioos:station:USF.COMPS:C13:1,2017-08-05T06:05:00Z,26.0630,-83.0730,76.7,1111122 
COMPS,ioos:station:USF.COMPS:C13:1,2017-08-05T06:35:00Z,26.0630,-83.0730,76.26,1111122 
COMPS,ioos:station:USF.COMPS:C13:1,2017-08-05T07:05:00Z,26.0630,-83.0730,77.34,1111122 
COMPS,ioos:station:USF.COMPS:C13:1,2017-08-05T07:35:00Z,26.0630,-83.0730,77.6,1111122 
COMPS,ioos:station:USF.COMPS:C13:1,2017-08-05T08:05:00Z,26.0630,-83.0730,78.3,1111122 
COMPS,ioos:station:USF.COMPS:C13:1,2017-08-05T08:35:00Z,26.0630,-83.0730,71.92,1111122 
COMPS,ioos:station:USF.COMPS:C13:1,2017-08-05T09:05:00Z,26.0630,-83.0730,75.17,1111122 
COMPS,ioos:station:USF.COMPS:C13:1,2017-08-05T09:35:00Z,26.0630,-83.0730,75.7,1111122 
COMPS,ioos:station:USF.COMPS:C13:1,2017-08-05T10:05:00Z,26.0630,-83.0730,74.13,1111122 
COMPS,ioos:station:USF.COMPS:C13:1,2017-08-05T10:35:00Z,26.0630,-83.0730,74.72,1111122 
COMPS,ioos:station:USF.COMPS:C13:1,2017-08-05T11:05:00Z,26.0630,-83.0730,74.57,1111122 
COMPS,ioos:station:USF.COMPS:C13:1,2017-08-05T11:35:00Z,26.0630,-83.0730,75.64,1111122 
COMPS,ioos:station:USF.COMPS:C13:1,2017-08-05T13:05:00Z,26.0630,-83.0730,72.55,1111122 
COMPS,ioos:station:USF.COMPS:C13:1,2017-08-05T13:35:00Z,26.0630,-83.0730,71.86,1111122 
COMPS,ioos:station:USF.COMPS:C13:1,2017-08-05T14:05:00Z,26.0630,-83.0730,72.79,1111122 
COMPS,ioos:station:USF.COMPS:C13:1,2017-08-05T14:35:00Z,26.0630,-83.0730,72.59,1111122 
COMPS,ioos:station:USF.COMPS:C13:1,2017-08-05T15:05:00Z,26.0630,-83.0730,72.39,1111122 
COMPS,ioos:station:USF.COMPS:C13:1,2017-08-05T15:35:00Z,26.0630,-83.0730,72.74,1111122 
COMPS,ioos:station:USF.COMPS:C13:1,2017-08-05T16:05:00Z,26.0630,-83.0730,72.68,1111122 
COMPS,ioos:station:USF.COMPS:C13:1,2017-08-05T16:35:00Z,26.0630,-83.0730,71.78,1111122 
COMPS,ioos:station:USF.COMPS:C13:1,2017-08-05T17:05:00Z,26.0630,-83.0730,72.07,1111122 
COMPS,ioos:station:USF.COMPS:C13:1,2017-08-05T17:35:00Z,26.0630,-83.0730,70.92,1111122 
COMPS,ioos:station:USF.COMPS:C13:1,2017-08-05T18:05:00Z,26.0630,-83.0730,70.18,1111122 
COMPS,ioos:station:USF.COMPS:C13:1,2017-08-05T18:35:00Z,26.0630,-83.0730,70.08,1111122 
COMPS,ioos:station:USF.COMPS:C13:1,2017-08-05T19:05:00Z,26.0630,-83.0730,71.66,1111122 
COMPS,ioos:station:USF.COMPS:C13:1,2017-08-05T19:35:00Z,26.0630,-83.0730,67.81,1111122 
COMPS,ioos:station:USF.COMPS:C13:1,2017-08-05T20:05:00Z,26.0630,-83.0730,68.77,1111122 
COMPS,ioos:station:USF.COMPS:C13:1,2017-08-05T20:35:00Z,26.0630,-83.0730,70.32,1111122 
COMPS,ioos:station:USF.COMPS:C13:1,2017-08-05T21:05:00Z,26.0630,-83.0730,70.32,1111122 
COMPS,ioos:station:USF.COMPS:C13:1,2017-08-05T21:35:00Z,26.0630,-83.0730,71.3,1111122 
COMPS,ioos:station:USF.COMPS:C13:1,2017-08-05T22:05:00Z,26.0630,-83.0730,72.41,1111122 
COMPS,ioos:station:USF.COMPS:C13:1,2017-08-05T22:35:00Z,26.0630,-83.0730,71.88,1111122 
COMPS,ioos:station:USF.COMPS:C13:1,2017-08-05T23:05:00Z,26.0630,-83.0730,71.8,1111122 
COMPS,ioos:station:USF.COMPS:C13:1,2017-08-05T23:35:00Z,26.0630,-83.0730,70.92,1111122 
COMPS,ioos:station:USF.COMPS:C13:1,2017-08-06T00:05:00Z,26.0630,-83.0730,73.44,1111122 
COMPS,ioos:station:USF.COMPS:C13:1,2017-08-06T00:35:00Z,26.0630,-83.0730,74.62,1111122 
COMPS,ioos:station:USF.COMPS:C13:1,2017-08-06T01:05:00Z,26.0630,-83.0730,75.11,1111122 
COMPS,ioos:station:USF.COMPS:C13:1,2017-08-06T01:35:00Z,26.0630,-83.0730,75.09,1111122 
COMPS,ioos:station:USF.COMPS:C13:1,2017-08-06T02:05:00Z,26.0630,-83.0730,75.45,1111122 
COMPS,ioos:station:USF.COMPS:C13:1,2017-08-06T02:35:00Z,26.0630,-83.0730,75.46,1111122 
COMPS,ioos:station:USF.COMPS:C13:1,2017-08-06T04:05:00Z,26.0630,-83.0730,74.32,1111122 
COMPS,ioos:station:USF.COMPS:C13:1,2017-08-06T04:35:00Z,26.0630,-83.0730,72.83,1111122 
COMPS,ioos:station:USF.COMPS:C13:1,2017-08-06T08:05:00Z,26.0630,-83.0730,69.01,1111122 
COMPS,ioos:station:USF.COMPS:C13:1,2017-08-06T08:35:00Z,26.0630,-83.0730,70.16,1111122 
COMPS,ioos:station:USF.COMPS:C13:1,2017-08-06T09:05:00Z,26.0630,-83.0730,67.91,1111122 
COMPS,ioos:station:USF.COMPS:C13:1,2017-08-06T09:35:00Z,26.0630,-83.0730,68.54,1111122 
COMPS,ioos:station:USF.COMPS:C13:1,2017-08-06T10:05:00Z,26.0630,-83.0730,70.94,1111122 
COMPS,ioos:station:USF.COMPS:C13:1,2017-08-06T10:35:00Z,26.0630,-83.0730,69.06,1111122 
COMPS,ioos:station:USF.COMPS:C13:1,2017-08-06T11:05:00Z,26.0630,-83.0730,69.55,1111122 
COMPS,ioos:station:USF.COMPS:C13:1,2017-08-06T11:35:00Z,26.0630,-83.0730,70.76,1111122 
COMPS,ioos:station:USF.COMPS:C13:1,2017-08-06T12:05:00Z,26.0630,-83.0730,69.1,1111122 
COMPS,ioos:station:USF.COMPS:C13:1,2017-08-06T12:35:00Z,26.0630,-83.0730,67.78,1111122 
COMPS,ioos:station:USF.COMPS:C13:1,2017-08-06T13:05:00Z,26.0630,-83.0730,67.29,1111122 
COMPS,ioos:station:USF.COMPS:C13:1,2017-08-06T13:35:00Z,26.0630,-83.0730,67.3,1111122 
COMPS,ioos:station:USF.COMPS:C13:1,2017-08-06T15:05:00Z,26.0630,-83.0730,68.69,1111122 
COMPS,ioos:station:USF.COMPS:C13:1,2017-08-06T15:35:00Z,26.0630,-83.0730,70.54,1111122 
COMPS,ioos:station:USF.COMPS:C13:1,2017-08-06T17:05:00Z,26.0630,-83.0730,68.92,1111122 
COMPS,ioos:station:USF.COMPS:C13:1,2017-08-06T17:35:00Z,26.0630,-83.0730,67.3,1111122 
COMPS,ioos:station:USF.COMPS:C13:1,2017-08-06T18:05:00Z,26.0630,-83.0730,65.99,1111122 
COMPS,ioos:station:USF.COMPS:C13:1,2017-08-06T18:35:00Z,26.0630,-83.0730,65.25,1111122 
COMPS,ioos:station:USF.COMPS:C13:1,2017-08-06T19:05:00Z,26.0630,-83.0730,66.46,1111122 
COMPS,ioos:station:USF.COMPS:C13:1,2017-08-06T19:35:00Z,26.0630,-83.0730,66.5,1111122 
COMPS,ioos:station:USF.COMPS:C13:1,2017-08-06T20:05:00Z,26.0630,-83.0730,67.06,1111122 
COMPS,ioos:station:USF.COMPS:C13:1,2017-08-06T20:35:00Z,26.0630,-83.0730,65.65,1111122 
COMPS,ioos:station:USF.COMPS:C13:1,2017-08-06T21:05:00Z,26.0630,-83.0730,67.71,1111122 
COMPS,ioos:station:USF.COMPS:C13:1,2017-08-06T21:35:00Z,26.0630,-83.0730,65.62,1111122 
COMPS,ioos:station:USF.COMPS:C13:1,2017-08-06T22:05:00Z,26.0630,-83.0730,68.41,1111122 
COMPS,ioos:station:USF.COMPS:C13:1,2017-08-06T22:35:00Z,26.0630,-83.0730,67.78,1111122 
COMPS,ioos:station:USF.COMPS:C13:1,2017-08-06T23:05:00Z,26.0630,-83.0730,66.13,1111122 
COMPS,ioos:station:USF.COMPS:C13:1,2017-08-06T23:35:00Z,26.0630,-83.0730,68.65,1111122 
COMPS,ioos:station:USF.COMPS:C13:1,2017-08-07T02:05:00Z,26.0630,-83.0730,75.96,1111122 
COMPS,ioos:station:USF.COMPS:C13:1,2017-08-07T02:35:00Z,26.0630,-83.0730,75.12,1111122 
COMPS,ioos:station:USF.COMPS:C13:1,2017-08-07T03:05:00Z,26.0630,-83.0730,75.68,1111122 
COMPS,ioos:station:USF.COMPS:C13:1,2017-08-07T03:35:00Z,26.0630,-83.0730,72.78,1111122 
COMPS,ioos:station:USF.COMPS:C13:1,2017-08-07T04:05:00Z,26.0630,-83.0730,76.78,1111122 
COMPS,ioos:station:USF.COMPS:C13:1,2017-08-07T04:35:00Z,26.0630,-83.0730,77.31,1111122 